[Iaude] MPEC B61: 2024 BM1 [a=1.01,e=0.25,i=7.1,H=26.0]
    mpec at marsden.cfa.harvard.edu 
    mpec at marsden.cfa.harvard.edu
       
    Sat Jan 20 06:28:20 EST 2024
    
    
  
M.P.E.C. 2024-B61                              Issued 2024 January 20, 11:26 UT
     The Minor Planet Electronic Circulars contain information on unusual
         minor planets, routine data on comets and natural satellites,
         and occasional editorial announcements.  They are published
    on behalf of Division F of the International Astronomical Union by the
          Minor Planet Center, Smithsonian Astrophysical Observatory,
                          Cambridge, MA 02138, U.S.A.
			  
             Prepared using the Tamkin Foundation Computer Network
                              MPC at CFA.HARVARD.EDU
            URL https://www.minorplanetcenter.net/    ISSN 1523-6714
                                    2024 BM1                                    
Observations:
     K24B01M*1C2024 01 19.35255209 47 27.416+35 12 11.30         20.71GVEB061G96
     K24B01M 1C2024 01 19.35779709 47 24.097+35 12 42.62         20.29GVEB061G96
     K24B01M 1C2024 01 19.36303309 47 20.846+35 13 12.22         21.07GVEB061G96
     K24B01M 1C2024 01 19.36827609 47 17.545+35 13 43.28         21.64GVEB061G96
     K24B01M KC2024 01 19.49887709 45 56.938+35 25 48.61         20.58GVEB061I52
     K24B01M KC2024 01 19.50025209 45 56.052+35 25 55.31         21.63GVEB061I52
     K24B01M 1C2024 01 19.52433709 45 41.638+35 28 01.81         21.11GVEB061G96
     K24B01M 1C2024 01 19.52475209 45 41.360+35 28 05.34         21.09GVEB061G96
     K24B01M 1C2024 01 19.52516709 45 41.029+35 28 07.46         21.29GVEB061G96
     K24B01M 1C2024 01 19.52558209 45 40.864+35 28 09.44         21.51GVEB061G96
     K24B01M 1C2024 01 19.53397809 45 35.831+35 28 54.16         20.37GVEB061G96
     K24B01M 1C2024 01 19.53901409 45 32.929+35 29 19.61         20.73GVEB061G96
     K24B01M 1C2024 01 20.15932 09 39 59.12 +36 24 00.0          20.6 VXEB061033
     K24B01M 1C2024 01 20.16122 09 39 58.06 +36 24 09.5          20.4 VXEB061033
     K24B01M 1C2024 01 20.16312 09 39 57.00 +36 24 18.4          20.4 VXEB061033
     K24B01M 1C2024 01 20.45011809 37 26.872+36 48 57.96         21.45GVEB061G96
     K24B01M 1C2024 01 20.45070609 37 26.497+36 49 00.95         21.29GVEB061G96
     K24B01M 1C2024 01 20.45214309 37 25.640+36 49 07.75         21.57GVEB061G96
Observer details:
033 Karl Schwarzschild Observatory, Tautenburg.  Observers S. Melnikov, C.
    Hogner, F. Ludwig, M. Hartmann, B. Stecklum.  Measurer B. Stecklum.
    1.34-m f/3 Schmidt + CCD.
G96 Mt. Lemmon Survey.  Observer A. R. Gibbs.  Measurers T. Beuden, V. F.
    Carvajal, D. Fay, J. B. Fazekas, D. C. Fuls, A. R. Gibbs, A. D. Grauer, H.
    Groeller, J. K. Hogan, R. A. Kowalski, S. M. Larson, G. J. Leonard, D.
    Rankin, R. L. Seaman, F. C. Shelly, K. W. Wierzchos.  1.5-m reflector +
    10K CCD.
I52 Steward Observatory, Mt. Lemmon Station.  Observer R. A. Kowalski.
    Measurers E. C. Beshore, D. Fay, J. B. Fazekas, D. C. Fuls, A. R. Gibbs,
    A. D. Grauer, H. Groeller, J. K. Hogan, R. A. Kowalski, S. M. Larson, G.
    J. Leonard, D. Rankin, R. L. Seaman, F. C. Shelly, K. W. Wierzchos.  1.0-m
    prime focus + CCD.
Orbital elements:
2024 BM1                                                 Earth MOID = 0.0047 AU
Epoch 2023 Sept. 13.0 TT = JDT 2460200.5                MPC                     
M 317.99923              (2000.0)            P               Q                  
n   0.97293011     Peri.  258.78247     +0.98128402     -0.15352549             
a   1.0086681      Node   109.96744     +0.18546450     +0.91590632             
e   0.2454527      Incl.    7.10418     -0.05181311     +0.37087133             
P   1.01           H   26.04          G   0.15           U   8                  
Residuals in seconds of arc
240119 G96  0.3+  0.3-    240119 G96  0.3+  1.2-    240120 033  0.1-  0.0
240119 G96  0.2-  0.4+    240119 G96  0.1-  0.2+    240120 033  0.1+  0.3+
240119 G96  0.0   0.5-    240119 G96  1.1-  0.1+    240120 033  0.2+  0.1-
240119 G96  0.3-  0.2+    240119 G96  0.1-  0.1-    240120 G96  0.4+  0.2-
240119 I52  0.5+  0.4+    240119 G96  0.6-  0.6+    240120 G96  0.0   0.0
240119 I52  0.1-  0.2-    240119 G96  0.3+  0.3-    240120 G96  0.4-  0.1+
Ephemeris:
2024 BM1                 a,e,i = 1.01, 0.25, 7                   q = 0.7611
Date    TT    R. A. (2000) Decl.     Delta      r    Elong.  Phase     V
2023 12 21    16 13 36.8 -48 54 55   0.08484 0.9131    32.2   145.0    28.1
...
2024 01 05    13 05 25.2 -20 37 15   0.03858 0.9780    81.0    96.8    22.4
...
2024 01 13    11 00 48.6 +18 32 28   0.04208 1.0120   131.8    46.5    20.9
...
2024 01 19    09 50 46.3 +34 37 22   0.05957 1.0368   152.0    26.5    21.2
2024 01 20    09 41 29.6 +36 11 04   0.06314 1.0409   153.6    24.9    21.3
2024 01 21    09 32 50.5 +37 31 38   0.06684 1.0449   154.8    23.6    21.4
...
2024 01 27    08 52 14.6 +42 25 12   0.09112 1.0685   156.0    22.0    22.0
...
2024 02 04    08 20 09.0 +44 33 09   0.1275  1.0982   150.3    26.4    23.0
...
2024 02 19    07 58 29.9 +43 59 39   0.2051  1.1481   137.6    35.5    24.4
A. U. Tomatic                (C) Copyright 2024 MPC           M.P.E.C. 2024-B61
    
    
More information about the Iaude
mailing list